Location: Bílinka
(49.3579°N, 14.3767°E)
Time: 21:35:51
(UTC+00:00)

Cosmos 1833 Rocket - Visible Passes

Search period start: 26 February 2024 00:00
Search period end: 07 March 2024 00:00
Orbit: 832 x 839 km, 71.0° (Epoch: 25 February)

Date Brightness Start Highest point End Pass type
(mag) Time Alt. Az. Time Alt. Az. Time Alt. Az.
26 Feb 4.0 17:42:28 10° WSW 17:47:45 40° NW 17:53:03 10° NNE visible
26 Feb 5.4 19:31:01 10° NW 19:33:21 12° NNW 19:35:41 10° N visible
27 Feb 3.9 17:25:28 10° WSW 17:30:48 42° NW 17:36:11 10° NNE visible
27 Feb 5.3 19:13:48 10° NW 19:16:21 13° NNW 19:18:54 10° N visible
28 Feb 3.9 17:08:29 10° SW 17:13:53 45° NW 17:19:18 10° NNE visible
28 Feb 5.3 18:56:35 10° WNW 18:59:21 14° NNW 19:02:06 10° N visible
29 Feb 5.2 18:39:23 10° WNW 18:42:21 14° NNW 18:45:18 10° N visible
01 Mar 5.2 18:22:13 10° WNW 18:25:21 15° NNW 18:28:30 10° N visible
01 Mar 5.6 21:57:14 10° N 21:57:16 10° N 21:57:16 10° N visible
02 Mar 5.2 18:05:03 10° WNW 18:08:21 16° NNW 18:11:40 10° N visible
02 Mar 5.5 21:40:32 10° N 21:40:45 10° N 21:40:45 10° N visible
03 Mar 5.1 17:47:54 10° WNW 17:51:22 16° NNW 17:54:52 10° N visible
03 Mar 5.4 21:23:54 10° N 21:24:14 10° NNE 21:24:14 10° NNE visible
04 Mar 5.1 17:30:45 10° WNW 17:34:23 17° NW 17:38:01 10° N visible
04 Mar 5.4 21:07:26 10° NNE 21:07:42 10° NNE 21:07:42 10° NNE visible
04 Mar 5.5 22:49:04 10° NNW 22:49:23 11° NNW 22:49:23 11° NNW visible
05 Mar 5.4 22:32:12 10° NNW 22:32:51 13° N 22:32:51 13° N visible
06 Mar 5.3 22:15:22 10° NNW 22:16:20 14° N 22:16:20 14° N visible
